Weather History for Columbus AFB, MS

Change the Weather History Date:

Wednesday, February 13, 2013

  Actual Average Record
Temperature  
Mean Temperature 44 °F -  
Max Temperature 46 °F 57 °F 71 °F (2000)
Min Temperature 41 °F 37 °F 19 °F (2006)
Degree Days  
Heating Degree Days 22    
Moisture  
Dew Point 41 °F    
Average Humidity 87    
Maximum Humidity 100    
Minimum Humidity 71    
Precipitation  
Precipitation 0.01 in - - ()
Sea Level Pressure  
Sea Level Pressure 29.90 in    
Wind  
Wind Speed 6 mph (WNW)    
Max Wind Speed 21 mph    
Max Gust Speed 24 mph    
Visibility 9 miles    
Events      
Averages and records for this station are not official NWS values.
T = Trace of Precipitation, MM = Missing Value Source: NWS Daily Summary

Daily Weather History Graph

Daily Weather History Graph

Search for Another Location

Airport:

Trip Planner

Search our weather history database for the weather conditions in past years. The results will help you decide how hot, cold, wet, or windy it might be!

Date:

Astronomy

Feb. 13, 2013 Rise Set
Actual Time 6:39 AM CST 5:36 PM CST
Civil Twilight 6:14 AM CST 6:02 PM CST
Nautical Twilight 5:44 AM CST 6:31 PM CST
Astronomical Twilight 5:15 AM CST 7:00 PM CST
Moon 8:22 AM CST (2/13) 9:24 PM CST (2/13)
Length of Visible Light 11h 48m
Length of Day
10h 56m
Waxing Crescent, 14% of the Moon is Illuminated
Feb 13
Waxing Crescent
Feb 17
First Quarter
Feb 25
Full
Mar 4
Last Quarter
Mar 11
New

Hourly Weather History & Observations

Time (CST) Temp. Windchill Dew Point Humidity Pressure Visibility Wind Dir Wind Speed Gust Speed Precip Events Conditions
12:03 AM 44.6 °F - 44.6 °F 100% 29.79 in 6.0 mi Calm Calm - N/A   Overcast
12:30 AM 44.6 °F - 44.6 °F 100% 29.78 in 5.0 mi Calm Calm - N/A   Overcast
12:35 AM 44.6 °F - 44.6 °F 100% 29.78 in 4.0 mi Calm Calm - N/A   Overcast
12:45 AM 44.6 °F - 44.6 °F 100% 29.79 in 4.0 mi Calm Calm - N/A   Overcast
12:47 AM 44.6 °F - 44.6 °F 100% 29.79 in 4.0 mi Calm Calm - N/A   Overcast
12:52 AM 44.6 °F - 44.6 °F 100% 29.79 in 3.0 mi Calm Calm - N/A   Overcast
12:55 AM 44.6 °F - 44.6 °F 100% 29.79 in 3.0 mi Calm Calm - N/A   Overcast
12:58 AM 44.1 °F - 44.1 °F 100% 29.80 in 3.0 mi Calm Calm - 0.01 in   Overcast
1:03 AM 44.6 °F - 44.6 °F 100% 29.79 in 4.0 mi Calm Calm - N/A   Overcast
1:08 AM 44.6 °F - 44.6 °F 100% 29.78 in 3.0 mi Calm Calm - N/A   Overcast
1:13 AM 44.6 °F - 44.6 °F 100% 29.78 in 3.0 mi Calm Calm - N/A   Overcast
1:18 AM 44.6 °F - 44.6 °F 100% 29.78 in 4.0 mi Calm Calm - N/A   Overcast
1:19 AM 44.6 °F - 44.6 °F 100% 29.78 in 4.0 mi Calm Calm - N/A   Overcast
1:24 AM 44.6 °F - 44.6 °F 100% 29.78 in 4.0 mi Calm Calm - N/A   Overcast
1:29 AM 44.6 °F - 44.6 °F 100% 29.77 in 4.0 mi Calm Calm - N/A   Overcast
1:34 AM 44.6 °F - 44.6 °F 100% 29.78 in 4.0 mi Calm Calm - N/A   Overcast
1:39 AM 44.6 °F - 44.6 °F 100% 29.77 in 5.0 mi Calm Calm - N/A   Overcast
1:44 AM 44.6 °F - 44.6 °F 100% 29.78 in 4.0 mi Calm Calm - N/A   Overcast
1:49 AM 44.6 °F - 44.6 °F 100% 29.76 in 4.0 mi Calm Calm - N/A   Overcast
1:54 AM 44.6 °F - 44.6 °F 100% 29.76 in 5.0 mi Calm Calm - N/A   Overcast
1:58 AM 44.4 °F - 44.4 °F 100% 29.77 in 5.0 mi Calm Calm - 0.00 in   Overcast
2:48 AM 44.6 °F 41.4 °F 44.6 °F 100% 29.76 in 9.0 mi SW 5.8 mph - N/A   Overcast
2:58 AM 45.0 °F 41.8 °F 45.0 °F 100% 29.78 in 10.0 mi SW 5.8 mph - N/A   Overcast
3:58 AM 45.7 °F 40.6 °F 45.5 °F 99% 29.78 in 10.0 mi West 10.4 mph - N/A   Overcast
4:13 AM 46.4 °F 40.7 °F 46.4 °F 100% 29.79 in 10.0 mi West 12.7 mph - N/A   Overcast
4:23 AM 46.4 °F 40.7 °F 46.4 °F 100% 29.80 in 10.0 mi West 12.7 mph - N/A   Overcast
4:38 AM 46.4 °F 41.9 °F 46.4 °F 100% 29.81 in 10.0 mi West 9.2 mph - N/A   Overcast
4:53 AM 46.4 °F 40.4 °F 46.4 °F 100% 29.82 in 10.0 mi West 13.8 mph - N/A   Overcast
4:58 AM 45.9 °F 40.8 °F 45.7 °F 99% 29.83 in 10.0 mi West 10.4 mph - N/A   Overcast
5:39 AM 46.4 °F 41.9 °F 44.6 °F 93% 29.83 in 10.0 mi West 9.2 mph - N/A   Overcast
5:49 AM 46.4 °F 41.9 °F 44.6 °F 93% 29.84 in 10.0 mi West 9.2 mph 17.3 mph N/A   Overcast
5:58 AM 45.7 °F 40.2 °F 44.1 °F 94% 29.85 in 10.0 mi West 11.5 mph - N/A   Overcast
6:05 AM 46.4 °F 41.5 °F 44.6 °F 93% 29.85 in 10.0 mi West 10.4 mph - N/A   Light Drizzle
6:15 AM 46.4 °F 41.1 °F 44.6 °F 93% 29.85 in 10.0 mi West 11.5 mph - N/A   Overcast
6:56 AM 44.6 °F 39.2 °F 42.8 °F 93% 29.87 in 10.0 mi West 10.4 mph - N/A   Overcast
6:58 AM 45.1 °F 39.9 °F 43.0 °F 92% 29.88 in 10.0 mi West 10.4 mph - 0.00 in   Overcast
7:01 AM 44.6 °F 39.7 °F 42.8 °F 93% 29.87 in 10.0 mi West 9.2 mph - N/A   Overcast
7:21 AM 44.6 °F 39.7 °F 42.8 °F 93% 29.86 in 10.0 mi West 9.2 mph - N/A   Mostly Cloudy
7:36 AM 44.6 °F 39.7 °F 42.8 °F 93% 29.88 in 10.0 mi West 9.2 mph - N/A   Mostly Cloudy
7:58 AM 45.0 °F 40.1 °F 42.4 °F 91% 29.89 in 10.0 mi West 9.2 mph - 0.00 in   Overcast
8:38 AM 46.4 °F 41.5 °F 42.8 °F 87% 29.90 in 10.0 mi West 10.4 mph - N/A   Mostly Cloudy
8:43 AM 46.4 °F 40.7 °F 42.8 °F 87% 29.90 in 10.0 mi West 12.7 mph - N/A   Overcast
8:53 AM 46.4 °F 41.1 °F 41.0 °F 81% 29.90 in 10.0 mi West 11.5 mph - N/A   Mostly Cloudy
8:58 AM 46.0 °F 39.3 °F 41.4 °F 84% 29.91 in 10.0 mi West 16.1 mph 19.6 mph N/A   Mostly Cloudy
9:28 AM 46.4 °F 40.4 °F 41.0 °F 81% 29.91 in 10.0 mi West 13.8 mph 23.0 mph N/A   Overcast
9:38 AM 46.4 °F 40.7 °F 41.0 °F 81% 29.91 in 10.0 mi West 12.7 mph - N/A   Overcast
9:43 AM 46.4 °F 40.7 °F 41.0 °F 81% 29.92 in 10.0 mi WNW 12.7 mph - N/A   Overcast
9:53 AM 46.4 °F 39.8 °F 39.2 °F 76% 29.93 in 10.0 mi WNW 16.1 mph - N/A   Overcast
9:58 AM 46.4 °F 39.5 °F 39.7 °F 78% 29.95 in 10.0 mi WNW 17.3 mph - N/A   Overcast
10:03 AM 46.4 °F 39.5 °F 39.2 °F 76% 29.93 in 10.0 mi WNW 17.3 mph - N/A   Overcast
10:13 AM 46.4 °F 39.5 °F 39.2 °F 76% 29.93 in 10.0 mi WNW 17.3 mph 21.9 mph N/A   Overcast
10:48 AM 46.4 °F 40.1 °F 39.2 °F 76% 29.95 in 10.0 mi WNW 15.0 mph - N/A   Overcast
10:53 AM 46.4 °F 39.2 °F 39.2 °F 76% 29.95 in 10.0 mi WNW 18.4 mph 24.2 mph N/A   Overcast
10:58 AM 46.4 °F 40.1 °F 38.8 °F 75% 29.96 in 10.0 mi WNW 15.0 mph 24.2 mph N/A   Overcast
11:03 AM 46.4 °F 40.7 °F 39.2 °F 76% 29.95 in 10.0 mi WNW 12.7 mph - N/A   Overcast
11:08 AM 46.4 °F 40.4 °F 39.2 °F 76% 29.95 in 10.0 mi WNW 13.8 mph 23.0 mph N/A   Overcast
11:23 AM 46.4 °F 39.5 °F 39.2 °F 76% 29.96 in 10.0 mi WNW 17.3 mph 23.0 mph N/A   Overcast
11:43 AM 46.4 °F 40.4 °F 39.2 °F 76% 29.96 in 10.0 mi WNW 13.8 mph - N/A   Overcast
11:48 AM 46.4 °F 40.4 °F 39.2 °F 76% 29.96 in 10.0 mi WNW 13.8 mph - N/A   Overcast
11:53 AM 46.4 °F 40.4 °F 39.2 °F 76% 29.95 in 10.0 mi WNW 13.8 mph - N/A   Overcast
11:58 AM 46.2 °F 40.1 °F 39.6 °F 78% 29.96 in 10.0 mi WNW 13.8 mph - N/A   Overcast
12:03 PM 46.4 °F 40.4 °F 39.2 °F 76% 29.95 in 10.0 mi WNW 13.8 mph - N/A   Overcast
12:08 PM 46.4 °F 40.7 °F 39.2 °F 76% 29.95 in 10.0 mi WNW 12.7 mph - N/A   Overcast
12:13 PM 46.4 °F 39.2 °F 39.2 °F 76% 29.95 in 10.0 mi WNW 18.4 mph - N/A   Overcast
12:18 PM 46.4 °F 39.0 °F 39.2 °F 76% 29.95 in 10.0 mi WNW 19.6 mph 24.2 mph N/A   Overcast
12:23 PM 44.6 °F 36.4 °F 39.2 °F 81% 29.96 in 10.0 mi WNW 20.7 mph - N/A   Overcast
12:48 PM 46.4 °F 39.8 °F 39.2 °F 76% 29.95 in 10.0 mi WNW 16.1 mph - N/A   Overcast
12:53 PM 46.4 °F 39.8 °F 37.4 °F 71% 29.95 in 10.0 mi WNW 16.1 mph - N/A   Overcast
12:58 PM 45.5 °F 38.6 °F 37.9 °F 75% 29.96 in 10.0 mi WNW 16.1 mph - N/A   Overcast
1:08 PM 46.4 °F 39.8 °F 39.2 °F 76% 29.95 in 10.0 mi WNW 16.1 mph 19.6 mph N/A   Overcast
1:13 PM 46.4 °F 41.1 °F 39.2 °F 76% 29.95 in 10.0 mi WNW 11.5 mph 19.6 mph N/A   Overcast
1:18 PM 46.4 °F 41.1 °F 39.2 °F 76% 29.95 in 10.0 mi WNW 11.5 mph 19.6 mph N/A   Overcast
1:58 PM 45.3 °F 38.4 °F 38.7 °F 78% 29.97 in 10.0 mi WNW 16.1 mph - N/A   Overcast
2:03 PM 44.6 °F 37.8 °F 37.4 °F 76% 29.96 in 10.0 mi WNW 15.0 mph - N/A   Overcast
2:08 PM 44.6 °F 37.8 °F 37.4 °F 76% 29.97 in 10.0 mi WNW 15.0 mph - N/A   Overcast
2:28 PM 44.6 °F 38.8 °F 37.4 °F 76% 29.97 in 10.0 mi NW 11.5 mph - N/A   Overcast
2:33 PM 44.6 °F 39.2 °F 37.4 °F 76% 29.97 in 10.0 mi NW 10.4 mph - N/A   Overcast
2:58 PM 45.1 °F 39.9 °F 38.1 °F 76% 29.98 in 10.0 mi NW 10.4 mph - N/A   Overcast
3:08 PM 44.6 °F 38.8 °F 37.4 °F 76% 29.98 in 10.0 mi NW 11.5 mph - N/A   Overcast
3:23 PM 44.6 °F 37.4 °F 37.4 °F 76% 29.98 in 10.0 mi NW 16.1 mph 23.0 mph N/A   Overcast
3:43 PM 44.6 °F 38.4 °F 37.4 °F 76% 29.99 in 10.0 mi NW 12.7 mph - N/A   Overcast
3:48 PM 44.6 °F 38.4 °F 37.4 °F 76% 29.99 in 10.0 mi NW 12.7 mph - N/A   Overcast
3:58 PM 45.1 °F 39.5 °F 37.2 °F 74% 30.00 in 10.0 mi NW 11.5 mph - N/A   Overcast
4:56 PM 44.6 °F 41.4 °F 37.4 °F 76% 30.00 in 10.0 mi NW 5.8 mph - N/A   Overcast
5:25 PM 42.8 °F 40.1 °F 37.4 °F 81% 30.01 in 10.0 mi NW 4.6 mph - N/A   Scattered Clouds
5:55 PM 41.0 °F 38.0 °F 37.4 °F 87% 30.02 in 10.0 mi West 4.6 mph - N/A   Mostly Cloudy
5:58 PM 41.9 °F 39.0 °F 37.2 °F 83% 30.03 in 10.0 mi West 4.6 mph - N/A   Mostly Cloudy
6:23 PM 42.8 °F 40.1 °F 37.4 °F 81% 30.02 in 10.0 mi West 4.6 mph - N/A   Overcast
6:58 PM 42.8 °F 41.1 °F 38.1 °F 84% 30.04 in 10.0 mi West 3.5 mph - N/A   Overcast
7:47 PM 42.8 °F 39.3 °F 39.2 °F 87% 30.04 in 10.0 mi West 5.8 mph - N/A   Overcast
7:58 PM 42.8 °F 39.3 °F 38.3 °F 84% 30.06 in 10.0 mi West 5.8 mph - N/A   Overcast
8:08 PM 42.8 °F 39.3 °F 37.4 °F 81% 30.05 in 10.0 mi West 5.8 mph - N/A   Overcast
8:58 PM 42.6 °F 39.9 °F 38.1 °F 84% 30.07 in 10.0 mi West 4.6 mph - N/A   Overcast
9:58 PM 42.3 °F 39.4 °F 37.2 °F 82% 30.08 in 10.0 mi West 4.6 mph - N/A   Overcast
11:58 PM 41.9 °F 38.2 °F 34.9 °F 76% 30.09 in 10.0 mi NW 5.8 mph - N/A   Overcast